Regional Weather Roundup
Issued by NWS Sterling, VA

Current Version | Previous Version | Text Only | Print | Product List | Glossary On
Versions: 1 2 3 4 5 6 7 8 9 10 11 12 13 14 15 16 17 18 19 20 21 22 23 24 25 26 27 28 29 30 31 32 33 34 35 36 37 38 39 40 41 42 43 44 45 46 47 48 49 50
000
ASUS41 KLWX 172011
RWRLWX

REGIONAL WEATHER ROUNDUP
NATIONAL WEATHER SERVICE BALTIMORE MD/WASHINGTON DC
400 PM EDT TUE OCT 17 2017

Note: "FAIR" indicates few or no clouds below 12,000 feet
with no significant weather and/or obstructions to visibility.
 TC=TEMPERATURE CELSIUS

 * =Non NWS site. Station does not report precipitation (e.g. rain,
    snow, etc.), thunder, or fog.

DCZ001-MDZ009-015-VAZ040>042-051-053>054-172100-
WASHINGTON METRO

CITY           SKY/WX    TMP DP  RH WIND       PRES   REMARKS
WASHINGTON NAT MOSUNNY   63  32  31 NE5       30.31S
DULLES         MOSUNNY   61  32  33 CALM      30.30F
ANDREWS AFB    SUNNY     60  31  33 CALM      30.30S
FT BELVOIR     SUNNY     63  30  29 W5        30.30F
QUANTICO       MOSUNNY   62  34  35 E5        30.32F
COLLEGE PARK*  SUNNY     61  31  32 CALM      30.30S
LEESBURG*      SUNNY     61  36  39 W3        30.31S
MANASSAS*      SUNNY     62  31  31 NW3       30.31F
GAITHERSBURG*  SUNNY     61  29  29 NW3       30.31S

$$

MDZ006>007-011-014-172100-
BALTIMORE METRO

CITY           SKY/WX    TMP DP  RH WIND       PRES   REMARKS
BWI AIRPORT    MOSUNNY   61  32  33 CALM      30.30S
MD SCIENCE CTR   N/A     63  32  31 MISG      30.30S
MARTIN STATE   MOSUNNY   59  45  58 SE9       30.32S
ANNAPOLIS      SUNNY     59  44  57 SE6       30.31S
FORT MEADE*    SUNNY     59  32  36 CALM      30.32S

$$

MDZ012-015-019>023-172100-
MARYLAND EASTERN SHORE

CITY           SKY/WX    TMP DP  RH WIND       PRES   REMARKS
OCEAN CITY     SUNNY     57  40  52 NE8       30.32S
SALISBURY      SUNNY     60  37  42 N5        30.31R
CAMBRIDGE*     SUNNY     59  36  41 NW5       30.31S
EASTON*        SUNNY     61  36  39 NW7       30.34S

$$

MDZ017>025-172100-
SOUTHERN MARYLAND

CITY           SKY/WX    TMP DP  RH WIND       PRES   REMARKS
PATUXENT RIVER MOSUNNY   59  40  49 NE7       30.32R
ST INIGOES     SUNNY     60  40  47 VRB5      30.31S
LEONARDTOWN*   NOT AVBL

$$

MDZ003>005-172100-
NORTH CENTRAL MARYLAND

CITY           SKY/WX    TMP DP  RH WIND       PRES   REMARKS
FREDERICK*     SUNNY     64  23  20 SW7       30.32F
HAGERSTOWN APT SUNNY     62  34  35 VRB3      30.28F
WESTMINSTER*   SUNNY     63  34  34 S3        30.29S

$$

MDZ501>502-172100-
WESTERN MARYLAND

CITY           SKY/WX    TMP DP  RH WIND       PRES   REMARKS
OAKLAND*       SUNNY     52  34  50 NW3       30.26S
CUMBERLAND*    SUNNY     64  36  34 CALM      30.31S

$$

VAZ025>031-172100-
SHENANDOAH VALLEY

CITY           SKY/WX    TMP DP  RH WIND       PRES   REMARKS
WINCHESTER*    SUNNY     61  34  36 CALM      30.28F
FRONT ROYAL*   SUNNY     63  34  34 S3        30.28F
LURAY*         SUNNY     61  32  33 S6        30.29F
NEW MARKET*    SUNNY     62  29  28 CALM      30.28F
STAUNTON*      SUNNY     60  32  34 CALM      30.31F
WAYNESBORO*    SUNNY     60  32  35 N5        30.29F

$$

WVZ021-048>050-054>055-172100-
EASTERN WEST VIRGINIA PANHANDLE

CITY           SKY/WX    TMP DP  RH WIND       PRES   REMARKS
MARTINSBURG    SUNNY     62  31  31 CALM      30.28F
PETERSBURG*    SUNNY     63  37  37 CALM      30.28S

$$

VAZ036>039-050-172100-
CENTRAL FOOTHILLS

CITY           SKY/WX    TMP DP  RH WIND       PRES   REMARKS
CHARLOTTESVILL SUNNY     63  33  32 S7        30.29F
CULPEPER*      SUNNY     63  27  25 CALM      30.31S
ORANGE*        SUNNY     61  32  33 CALM      30.30F
GORDONSVILLE*  SUNNY     62  32  32 CALM      30.30S
WARRENTON*     SUNNY     64  19  17 CALM      30.30S

$$

VAZ055>057-172100-
NORTH AND CENTRAL PIEDMONT

CITY           SKY/WX    TMP DP  RH WIND       PRES   REMARKS
FREDERICKSBRG* SUNNY     63  33  32 N5        30.30S
STAFFORD*      SUNNY     62  29  28 NE3       30.35S

$$

NCZ024-NYZ072-PAZ021-071-VAZ022-071-172100-
OTHER REGIONAL OBSERVATIONS

CITY           SKY/WX    TMP DP  RH WIND       PRES   REMARKS
NEW YORK CITY  SUNNY     58  33  39 W5        30.29F
PHILADELPHIA   SUNNY     60  32  34 S7        30.29F
PITTSBURGH     MOSUNNY   62  37  39 SW8       30.26F
ROANOKE        SUNNY     63  35  35 VRB5      30.31F
RICHMOND       MOSUNNY   63  33  32 N7        30.31S
RALEIGH        MOSUNNY   64  34  32 N8        30.30F

$$

ANZ530>537-172100-
MARINE OBSERVATIONS

STATION/POSITION TIME  TEMP    WIND        PRES
                       AIR SEA DIR/SP/G
                 (UTC) (F)     (DEG/KT/KT) (MB)
THOMAS PT LIGHT  2000   56 68  120/  3/  4   N/A
BALT KEY BRIDGE  1942   61      CALM  /  2 1026.1F
COVE POINT       1942   55      30/  5/  8 1027.3S
LEWISETTA        1942   57 64   90/  3/  5 1026.6R
SOLOMONS ISLAND  1942   58 70   30/  2/  4 1026.3R
PINEY POINT      1942          220/  3/  4   N/A

$$




USA.gov is the U.S. government's official web portal to all federal, state and local government web resources and services.